Time,TemperatureF,DewpointF,PressureIn,WindDirection,WindDirectionDegrees,WindSpeedMPH,WindSpeedGustMPH,Humidity,HourlyPrecipIn,Conditions,Clouds,dailyrainin,SolarRadiationWatts/m^2,SoftwareType,DateUTC
2013-10-08 00:02:00,42.0,41.0,-100.00,NNE,21,0.0,5.0,96,0.03,,,0.06,0.000000,,2013-10-08 08:02:00,
2013-10-08 00:12:00,42.0,41.0,-100.00,NNE,21,0.0,5.0,96,0.03,,,0.06,0.000000,,2013-10-08 08:12:00,
2013-10-08 00:21:00,42.0,41.0,-100.00,NNE,21,0.0,5.0,96,0.03,,,0.06,0.000000,,2013-10-08 08:21:00,
2013-10-08 00:52:00,42.0,41.0,-100.00,NE,48,1.0,3.0,96,0.04,,,0.10,0.000000,,2013-10-08 08:52:00,
2013-10-08 01:02:00,42.0,41.0,-100.00,NE,48,1.0,3.0,96,0.04,,,0.10,0.000000,,2013-10-08 09:02:00,
2013-10-08 01:12:00,42.0,41.0,-100.00,NE,48,1.0,3.0,96,0.04,,,0.10,0.000000,,2013-10-08 09:12:00,
2013-10-08 01:21:00,42.0,41.0,-100.00,NE,48,1.0,3.0,96,0.04,,,0.10,0.000000,,2013-10-08 09:21:00,
2013-10-08 01:53:00,42.0,41.0,-100.00,North,6,0.0,2.0,96,0.02,,,0.12,0.000000,,2013-10-08 09:53:00,
2013-10-08 02:03:00,42.0,41.0,-100.00,North,6,0.0,2.0,96,0.02,,,0.12,0.000000,,2013-10-08 10:03:00,
2013-10-08 02:12:00,42.0,41.0,-100.00,North,6,0.0,2.0,96,0.02,,,0.12,0.000000,,2013-10-08 10:12:00,
2013-10-08 02:23:00,42.0,41.0,-100.00,North,6,0.0,2.0,96,0.02,,,0.12,0.000000,,2013-10-08 10:23:00,
2013-10-08 02:53:00,42.0,41.0,-100.00,NE,43,2.0,4.0,97,0.03,,,0.15,0.000000,,2013-10-08 10:53:00,
2013-10-08 03:02:00,42.0,41.0,-100.00,NE,43,2.0,4.0,97,0.03,,,0.15,0.000000,,2013-10-08 11:02:00,
2013-10-08 03:12:00,42.0,41.0,-100.00,NE,43,2.0,4.0,97,0.03,,,0.15,0.000000,,2013-10-08 11:12:00,
2013-10-08 03:21:00,42.0,41.0,-100.00,NE,43,2.0,4.0,97,0.03,,,0.15,0.000000,,2013-10-08 11:21:00,
2013-10-08 03:52:00,42.0,41.0,-100.00,NE,44,2.0,4.0,95,0.04,,,0.19,0.000000,,2013-10-08 11:52:00,
2013-10-08 04:02:00,42.0,41.0,-100.00,NE,44,2.0,4.0,95,0.04,,,0.19,0.000000,,2013-10-08 12:02:00,
2013-10-08 04:12:00,42.0,41.0,-100.00,NE,44,2.0,4.0,95,0.04,,,0.19,0.000000,,2013-10-08 12:12:00,
2013-10-08 04:21:00,42.0,41.0,-100.00,NE,44,2.0,4.0,95,0.04,,,0.19,0.000000,,2013-10-08 12:21:00,
2013-10-08 04:52:00,43.0,41.0,-100.00,NE,38,3.0,8.0,91,0.06,,,0.25,0.000000,,2013-10-08 12:52:00,
2013-10-08 05:01:00,43.0,41.0,-100.00,NE,38,3.0,8.0,91,0.06,,,0.25,0.000000,,2013-10-08 13:01:00,
2013-10-08 05:11:00,43.0,41.0,-100.00,NE,38,3.0,8.0,91,0.06,,,0.25,0.000000,,2013-10-08 13:11:00,
2013-10-08 05:22:00,43.0,41.0,-100.00,NE,38,3.0,8.0,91,0.06,,,0.25,0.000000,,2013-10-08 13:22:00,
2013-10-08 05:52:00,44.0,41.0,-100.00,NE,46,4.0,11.0,90,0.05,,,0.30,0.000000,,2013-10-08 13:52:00,
2013-10-08 06:02:00,44.0,41.0,-100.00,NE,46,4.0,11.0,90,0.05,,,0.30,0.000000,,2013-10-08 14:02:00,
2013-10-08 06:11:00,44.0,41.0,-100.00,NE,46,4.0,11.0,90,0.05,,,0.30,0.000000,,2013-10-08 14:11:00,
2013-10-08 06:21:00,44.0,41.0,-100.00,NE,46,4.0,11.0,90,0.05,,,0.30,0.000000,,2013-10-08 14:21:00,
2013-10-08 06:52:00,44.0,42.0,-100.00,NE,50,3.0,9.0,92,0.13,,,0.43,0.000000,,2013-10-08 14:52:00,
2013-10-08 07:01:00,44.0,42.0,-100.00,NE,50,3.0,9.0,92,0.13,,,0.43,0.000000,,2013-10-08 15:01:00,
2013-10-08 07:11:00,44.0,42.0,-100.00,NE,50,3.0,9.0,92,0.13,,,0.43,0.000000,,2013-10-08 15:11:00,
2013-10-08 07:22:00,44.0,42.0,-100.00,NE,50,3.0,9.0,92,0.13,,,0.43,0.000000,,2013-10-08 15:22:00,
2013-10-08 07:53:00,45.0,43.0,-100.00,ENE,58,3.0,7.0,91,0.11,,,0.54,0.000000,,2013-10-08 15:53:00,
2013-10-08 08:03:00,45.0,43.0,-100.00,ENE,58,3.0,7.0,91,0.11,,,0.54,0.000000,,2013-10-08 16:03:00,
2013-10-08 08:13:00,45.0,43.0,-100.00,ENE,58,3.0,7.0,91,0.11,,,0.54,0.000000,,2013-10-08 16:13:00,
2013-10-08 08:23:00,45.0,43.0,-100.00,ENE,58,3.0,7.0,91,0.11,,,0.54,0.000000,,2013-10-08 16:23:00,
2013-10-08 08:53:00,45.0,43.0,-100.00,North,5,0.0,4.0,93,0.14,,,-99.99,0.000000,,2013-10-08 16:53:00,
2013-10-08 09:03:00,45.0,43.0,-100.00,North,5,0.0,4.0,93,0.14,,,-99.99,0.000000,,2013-10-08 17:03:00,
2013-10-08 09:12:00,45.0,43.0,-100.00,North,5,0.0,4.0,93,0.14,,,-99.99,0.000000,,2013-10-08 17:12:00,
2013-10-08 09:22:00,45.0,43.0,-100.00,North,5,0.0,4.0,93,0.14,,,-99.99,0.000000,,2013-10-08 17:22:00,
2013-10-08 09:52:00,45.0,44.0,-100.00,NE,56,3.0,7.0,95,0.24,,,0.92,1.000000,,2013-10-08 17:52:00,
2013-10-08 10:02:00,45.0,44.0,-100.00,NE,56,3.0,7.0,95,0.24,,,0.92,1.000000,,2013-10-08 18:02:00,
2013-10-08 10:11:00,45.0,44.0,-100.00,NE,56,3.0,7.0,95,0.24,,,0.92,1.000000,,2013-10-08 18:11:00,
2013-10-08 10:22:00,45.0,44.0,-100.00,NE,56,3.0,7.0,95,0.24,,,0.92,1.000000,,2013-10-08 18:22:00,
2013-10-08 10:53:00,46.0,44.0,-100.00,East,80,4.0,11.0,94,0.14,,,1.06,6.000000,,2013-10-08 18:53:00,
2013-10-08 11:02:00,46.0,44.0,-100.00,East,80,4.0,11.0,94,0.14,,,1.06,6.000000,,2013-10-08 19:02:00,
2013-10-08 11:11:00,46.0,44.0,-100.00,East,80,4.0,11.0,94,0.14,,,1.06,6.000000,,2013-10-08 19:11:00,
2013-10-08 11:21:00,46.0,44.0,-100.00,East,80,4.0,11.0,94,0.14,,,1.06,6.000000,,2013-10-08 19:21:00,
2013-10-08 11:52:00,47.0,45.0,-100.00,ENE,61,4.0,11.0,93,0.03,,,1.09,16.000000,,2013-10-08 19:52:00,
2013-10-08 12:02:00,47.0,45.0,-100.00,ENE,61,4.0,11.0,93,0.03,,,1.09,16.000000,,2013-10-08 20:02:00,
2013-10-08 12:12:00,47.0,45.0,-100.00,ENE,61,4.0,11.0,93,0.03,,,1.09,16.000000,,2013-10-08 20:12:00,
2013-10-08 12:22:00,47.0,45.0,-100.00,ENE,61,4.0,11.0,93,0.03,,,1.09,16.000000,,2013-10-08 20:22:00,
2013-10-08 12:52:00,46.0,44.0,-100.00,West,264,0.0,8.0,92,0.00,,,1.09,33.000000,,2013-10-08 20:52:00,
2013-10-08 13:02:00,46.0,44.0,-100.00,West,264,0.0,8.0,92,0.00,,,1.09,33.000000,,2013-10-08 21:02:00,
2013-10-08 13:12:00,46.0,44.0,-100.00,West,264,0.0,8.0,92,0.00,,,1.09,33.000000,,2013-10-08 21:12:00,
2013-10-08 13:21:00,46.0,44.0,-100.00,West,264,0.0,8.0,92,0.00,,,1.09,33.000000,,2013-10-08 21:21:00,
2013-10-08 13:54:00,47.0,45.0,-100.00,East,81,1.0,5.0,94,0.03,,,1.12,39.000000,,2013-10-08 21:54:00,
2013-10-08 14:03:00,47.0,45.0,-100.00,East,81,1.0,5.0,94,0.03,,,1.12,39.000000,,2013-10-08 22:03:00,
2013-10-08 14:13:00,47.0,45.0,-100.00,East,81,1.0,5.0,94,0.03,,,1.12,39.000000,,2013-10-08 22:13:00,
2013-10-08 14:24:00,47.0,45.0,-100.00,East,81,1.0,5.0,94,0.03,,,1.12,39.000000,,2013-10-08 22:24:00,
2013-10-08 14:57:00,48.0,47.0,-100.00,SSW,202,2.0,5.0,96,0.10,,,1.22,59.000000,,2013-10-08 22:57:00,
2013-10-08 15:03:00,48.0,47.0,-100.00,SSW,202,2.0,5.0,96,0.10,,,1.22,59.000000,,2013-10-08 23:03:00,
2013-10-08 15:12:00,48.0,47.0,-100.00,SSW,202,2.0,5.0,96,0.10,,,1.22,59.000000,,2013-10-08 23:12:00,
2013-10-08 15:22:00,48.0,47.0,-100.00,SSW,202,2.0,5.0,96,0.10,,,1.22,59.000000,,2013-10-08 23:22:00,
2013-10-08 15:52:00,46.0,45.0,-100.00,SW,217,7.0,15.0,95,0.00,,,1.22,84.000000,,2013-10-08 23:52:00,
2013-10-08 16:02:00,46.0,45.0,-100.00,SW,217,7.0,15.0,95,0.00,,,1.22,84.000000,,2013-10-09 00:02:00,
2013-10-08 16:12:00,46.0,45.0,-100.00,SW,217,7.0,15.0,95,0.00,,,1.22,84.000000,,2013-10-09 00:12:00,
2013-10-08 16:22:00,46.0,45.0,-100.00,SW,217,7.0,15.0,95,0.00,,,1.22,84.000000,,2013-10-09 00:22:00,
2013-10-08 16:52:00,45.0,43.0,-100.00,SW,235,8.0,16.0,94,0.00,,,1.22,108.000000,,2013-10-09 00:52:00,
2013-10-08 17:01:00,45.0,43.0,-100.00,SW,235,8.0,16.0,94,0.00,,,1.22,108.000000,,2013-10-09 01:01:00,
2013-10-08 17:12:00,45.0,43.0,-100.00,SW,235,8.0,16.0,94,0.00,,,1.22,108.000000,,2013-10-09 01:12:00,
2013-10-08 17:21:00,45.0,43.0,-100.00,SW,235,8.0,16.0,94,0.00,,,1.22,108.000000,,2013-10-09 01:21:00,
2013-10-08 17:52:00,44.0,43.0,-100.00,SSW,208,4.0,15.0,95,0.00,,,1.22,35.000000,,2013-10-09 01:52:00,
2013-10-08 18:02:00,44.0,43.0,-100.00,SSW,208,4.0,15.0,95,0.00,,,1.22,35.000000,,2013-10-09 02:02:00,
2013-10-08 18:12:00,44.0,43.0,-100.00,SSW,208,4.0,15.0,95,0.00,,,1.22,35.000000,,2013-10-09 02:12:00,
2013-10-08 18:22:00,44.0,43.0,-100.00,SSW,208,4.0,15.0,95,0.00,,,1.22,35.000000,,2013-10-09 02:22:00,
2013-10-08 18:52:00,44.0,42.0,-100.00,SSW,203,7.0,10.0,91,0.00,,,1.22,36.000000,,2013-10-09 02:52:00,
2013-10-08 19:02:00,44.0,42.0,-100.00,SSW,203,7.0,10.0,91,0.00,,,1.22,36.000000,,2013-10-09 03:02:00,
2013-10-08 19:11:00,44.0,42.0,-100.00,SSW,203,7.0,10.0,91,0.00,,,1.22,36.000000,,2013-10-09 03:11:00,
2013-10-08 19:23:00,44.0,42.0,-100.00,SSW,203,7.0,10.0,91,0.00,,,1.22,36.000000,,2013-10-09 03:23:00,
2013-10-08 19:54:00,42.0,38.0,-100.00,South,188,6.0,13.0,85,0.00,,,1.22,28.000000,,2013-10-09 03:54:00,
2013-10-08 20:05:00,42.0,38.0,-100.00,South,188,6.0,13.0,85,0.00,,,1.22,28.000000,,2013-10-09 04:05:00,
2013-10-08 20:14:00,42.0,38.0,-100.00,South,188,6.0,13.0,85,0.00,,,1.22,28.000000,,2013-10-09 04:14:00,
2013-10-08 20:23:00,42.0,38.0,-100.00,South,188,6.0,13.0,85,0.00,,,1.22,28.000000,,2013-10-09 04:23:00,
2013-10-08 20:54:00,40.0,37.0,-100.00,SSW,207,6.0,12.0,88,0.00,,,1.22,0.000000,,2013-10-09 04:54:00,
2013-10-08 21:04:00,40.0,37.0,-100.00,SSW,207,6.0,12.0,88,0.00,,,1.22,0.000000,,2013-10-09 05:04:00,
2013-10-08 21:13:00,40.0,37.0,-100.00,SSW,207,6.0,12.0,88,0.00,,,1.22,0.000000,,2013-10-09 05:13:00,
2013-10-08 21:22:00,40.0,37.0,-100.00,SSW,207,6.0,12.0,88,0.00,,,1.22,0.000000,,2013-10-09 05:22:00,
2013-10-08 21:52:00,39.0,35.0,-100.00,SSW,201,7.0,16.0,86,0.00,,,1.22,0.000000,,2013-10-09 05:52:00,
2013-10-08 22:02:00,39.0,35.0,-100.00,SSW,201,7.0,16.0,86,0.00,,,1.22,0.000000,,2013-10-09 06:02:00,
2013-10-08 22:12:00,39.0,35.0,-100.00,SSW,201,7.0,16.0,86,0.00,,,1.22,0.000000,,2013-10-09 06:12:00,
2013-10-08 22:22:00,39.0,35.0,-100.00,SSW,201,7.0,16.0,86,0.00,,,1.22,0.000000,,2013-10-09 06:22:00,
2013-10-08 22:52:00,40.0,37.0,-100.00,SSW,213,9.0,13.0,89,0.00,,,1.19,0.000000,,2013-10-09 06:52:00,
2013-10-08 23:01:00,40.0,37.0,-100.00,SSW,213,9.0,13.0,89,0.00,,,1.19,0.000000,,2013-10-09 07:01:00,
2013-10-08 23:12:00,40.0,37.0,-100.00,SSW,213,9.0,13.0,89,0.00,,,1.19,0.000000,,2013-10-09 07:12:00,
2013-10-08 23:21:00,40.0,37.0,-100.00,SSW,213,9.0,13.0,89,0.00,,,1.19,0.000000,,2013-10-09 07:21:00,
2013-10-08 23:52:00,41.0,38.0,-100.00,SSW,205,8.0,15.0,88,0.00,,,1.16,0.000000,,2013-10-09 07:52:00,